Regional Weather Roundup
Issued by NWS

Home | Current Version | Previous Version | Graphics & Text | Print | Product List | Glossary On
Versions: 1 2 3 4 5 6 7 8 9 10 11 12 13 14 15 16 17 18 19 20 21 22 23 24 25 26 27 28 29 30 31 32 33 34 35 36 37 38 39 40 41 42 43 44 45 46 47 48 49 50
000
ASUS43 KBIS 260702
RWRND

NORTH DAKOTA REGIONAL WEATHER ROUNDUP
NATIONAL WEATHER SERVICE BISMARCK ND
200 AM CDT TUE JUL 26 2016

NOTE: "FAIR" INDICATES FEW OR NO CLOUDS BELOW 12,000 FEET WITH NO
SIGNIFICANT WEATHER AND/OR OBSTRUCTIONS TO VISIBILITY.


NDZ001>003-009>011-017-260800-
NORTHWEST NORTH DAKOTA

CITY           SKY/WX    TMP DP  RH WIND       PRES   REMARKS
WILLISTON      CLEAR     66  59  78 N5        30.00S
MINOT          CLEAR     67  63  87 CALM      29.98S
MINOT AFB      CLEAR     59  58  96 W7        29.97S
$$

NDZ018>021-031>035-040>046-260800-
SOUTHWEST NORTH DAKOTA

CITY           SKY/WX    TMP DP  RH WIND       PRES   REMARKS
BISMARCK       CLOUDY    74  69  85 NE12      29.95S
DICKINSON      CLEAR     65  62  90 NE7       30.00S
GARRISON         N/A     65  64  97 N3        29.99R
HETTINGER ARPT CLEAR     72  63  73 NE13      30.01R
$$

NDZ004>008-012>016-024-026-027-054-260800-
NORTHEAST NORTH DAKOTA

CITY           SKY/WX    TMP DP  RH WIND       PRES   REMARKS
GRAND FORKS    CLEAR     72  63  73 NE6       29.91F
GRND FRKS AFB  CLEAR     67  65  93 N3        29.92F
DEVILS LAKE    CLEAR     68  66  93 NE6       29.97S
$$

NDZ022-023-025-028>030-036>039-047>053-260800-
SOUTHEAST NORTH DAKOTA

CITY           SKY/WX    TMP DP  RH WIND       PRES   REMARKS
FARGO          CLEAR     72  65  78 S7        29.92S
JAMESTOWN      CLOUDY    69  68  96 CALM      29.93R
$$





USA.gov is the U.S. government's official web portal to all federal, state and local government web resources and services.